Regional Weather Roundup
Issued by NWS

Home | Current Version | Previous Version | Graphics & Text | Print | Product List | Glossary On
Versions: 1 2 3 4 5 6 7 8 9 10 11 12 13 14 15 16 17 18 19 20 21 22 23 24 25 26 27 28 29 30 31 32 33 34 35 36 37 38 39 40 41 42 43 44 45 46 47 48 49 50
000
ASUS43 KMPX 242301
RWRMN
WEATHER ROUNDUP FOR MINNESOTA
NATIONAL WEATHER SERVICE TWIN CITIES/CHANHASSEN MN
600 PM CDT WED MAY 24 2017


NOTE: "FAIR" INDICATES FEW OR NO CLOUDS BELOW 12,000 FEET WITH NO
SIGNIFICANT WEATHER AND/OR OBSTRUCTIONS TO VISIBILITY. N/A MEANS
CURRENT SKY AND/OR WEATHER CONDITIONS ARE NOT AVAILABLE.

MNZ060>063-068>070-250000-
   Twin Cities Metro

CITY           SKY/WX    TMP DP  RH WIND       PRES   REMARKS
TWIN CITIES    PTSUNNY   61  44  53 NE9G18    29.69F
ST PAUL        CLOUDY    61  47  59 NE10      29.70F
CRYSTAL        CLOUDY    60  41  49 E7        29.69F
BLAINE         PTSUNNY   63  46  55 NE8       29.70F
LAKEVILLE      CLOUDY    57  46  67 NE5       29.69F
EDEN PRAIRIE   CLOUDY    61  43  51 NE7       29.69S
SOUTH ST PAUL  CLOUDY    61  45  55 E9        29.70S
LAKE ELMO      CLOUDY    59  46  63 NE7       29.71S
$$
MNZ001>005-007-008-013>017-022>024-027-028-250000-
   Northwest Minnesota

CITY           SKY/WX    TMP DP  RH WIND       PRES   REMARKS
BEMIDJI        PTSUNNY   64  42  44 SE16G22   29.69F
HALLOCK        MOSUNNY   70  36  28 S23       29.60F
ROSEAU         MOSUNNY   68  41  37 S17       29.65F
WARROAD        SUNNY     66  39  37 SE14G21   29.66F
CROOKSTON      CLOUDY    68  39  34 S18G24    29.64F
FOSSTON        MOSUNNY   66  43  42 SE10G17   29.68F
DETROIT LAKES  PTSUNNY   61  41  48 SE9       29.70S
MOORHEAD       PTSUNNY   63  41  45 S15       29.66F
PARK RAPIDS    LGT RAIN  62  38  40 SE12      29.69F
MAHNOMEN       MOCLDY    62  39  42 SE12G17   29.68S
$$
MNZ006-009>011-018-025>026-250000-
   North Central Minnesota

CITY           SKY/WX    TMP DP  RH WIND       PRES   REMARKS
BAUDETTE       PTSUNNY   69  36  29 SE12G22   29.67F
FLAG ISLAND    SUNNY     64  39  39 CALM      29.66F
INTL FALLS     PTSUNNY   64  36  35 SE8       29.69F
WASKISH        PTSUNNY   64  39  39 SE10G21   29.69S
BIG FORK       MOSUNNY   64  41  42 SE8       29.72S
LONGVILLE      CLOUDY    59  43  55 CALM      29.72S
GRAND RAPIDS   PTSUNNY   59  40  49 SE10G16   29.74F
CRANE LAKE     MOSUNNY   64  37  36 SE3       29.74F
ORR            PTSUNNY   61  37  41 SE5       29.71S
COOK           PTSUNNY   61  39  44 SE7       29.74S
WALKER         CLOUDY    58  41  54 E8        29.70F
$$
MNZ012-019>021-037-250000-
   Northeast Minnesota

CITY           SKY/WX    TMP DP  RH WIND       PRES   REMARKS
DULUTH         MOSUNNY   58  43  57 E17       29.74F
ELY            SUNNY     63  32  31 SE16      29.74S
HIBBING        SUNNY     59  39  47 SE15      29.74S
EVELETH        SUNNY     61  29  30 E12       29.75S
DULUTH HARBOR  MOSUNNY   48  43  81 E14       29.77F
TWO HARBORS    SUNNY     57  46  67 E14       29.75F
SILVER BAY     SUNNY     55  45  67 E12       29.76F
GRAND MARAIS     N/A     49  37  63 E5        29.79F
G MARAIS ARPRT SUNNY     55  28  35 E8        29.79F
$$
MNZ029>031-032-039>041-046>048-054>057-064-250000-
   West Central Minnesota

CITY           SKY/WX    TMP DP  RH WIND       PRES   REMARKS
FERGUS FALLS   PTSUNNY   63  43  48 S13       29.66F
WHEATON        CLOUDY    61  43  51 SE14      29.69F
MORRIS         CLOUDY    59  45  58 SE8       29.68F
ALEXANDRIA     CLOUDY    57  43  59 SE6       29.71F
ELBOW LAKE     CLOUDY    59  44  57 E9        29.69F
WADENA         PTSUNNY   59  41  51 SE12      29.70F
GLENWOOD       CLOUDY    57  45  62 E9        29.71F
APPLETON       CLOUDY    61  45  55 SE7       29.69S
BENSON         CLOUDY    61  43  51 SE6       29.71F
ORTONVILLE     CLOUDY    61  45  55 SE9       29.68F
MADISON        CLOUDY    63  46  55 SE6       29.69S
WILLMAR        CLOUDY    61  46  59 E3        29.71F
$$
MNZ033>034-036-042>043-049>051-058-059-250000-
   Central Minnesota

CITY           SKY/WX    TMP DP  RH WIND       PRES   REMARKS
ST CLOUD       PTSUNNY   60  43  53 SE6       29.70F
SAUK CENTRE    CLOUDY    56  43  60 SE9       29.71F
PAYNESVILLE    CLOUDY    58  43  57 E9        29.72S
AITKIN         CLOUDY    57  43  58 E5        29.71S
PINE RIVER     CLOUDY    61  45  55 E10       29.75S
BRAINERD       PTSUNNY   59  42  53 E9        29.71F
STAPLES        PTSUNNY   59  39  47 SE7       29.70F
LONG PRAIRIE   CLOUDY    55  41  58 E6        29.71F
LITTLE FALLS   CLOUDY    59  39  47 E6        29.72S
LITCHFIELD     CLOUDY    61  46  59 NE6       29.71S
BUFFALO        CLOUDY    59  41  51 NE6       29.72S
MAPLE LAKE     CLOUDY    60  45  58 CALM      29.72S
HUTCHINSON     CLOUDY    60  47  61 NE5       29.72R
$$
MNZ037-044-045-052-053-250000-
   East Central Minnesota

CITY           SKY/WX    TMP DP  RH WIND       PRES   REMARKS
PRINCETON      CLOUDY    61  45  55 NE3       29.71S
MORA           CLOUDY    57  43  58 E6        29.72F
CAMBRIDGE      CLOUDY    63  46  55 CALM      29.69S
RUSH CITY      CLOUDY    62  46  56 E6        29.71F
MOOSE LAKE     CLOUDY    57  43  58 NE7       29.72S
HINCKLEY       CLOUDY    59  46  63 NE6       29.72F
CLOQUET        MOSUNNY   55  41  58 E14G21    29.74F
MCGREGOR       CLOUDY    59  43  55 E10G16    29.73S
$$
MNZ071>073-080-081-089-090-097-098-250000-
   Southwest Minnesota

CITY           SKY/WX    TMP DP  RH WIND       PRES   REMARKS
MONTEVIDEO     CLOUDY    61  45  55 S9        29.69S
CANBY          CLOUDY    61  46  57 CALM      29.70S
MARSHALL       CLOUDY    59  43  55 SE6       29.70S
REDWOOD FALLS  CLOUDY    60  43  53 E6        29.69S
OLIVIA         CLOUDY    59  43  55 E7        29.69S
PIPESTONE      MOSUNNY   61  39  44 SE8       29.68F
WINDOM         MOSUNNY   57  43  58 CALM      29.70S
WORTHINGTON    CLOUDY    57  44  62 E3        29.70F
JACKSON        CLOUDY    57  45  62 CALM      29.70F
TRACY          CLOUDY    60  46  60 E5        29.70S
SLAYTON        CLOUDY    56  44  62 SE3       29.71F
$$
MNZ065>067-074>077-082>085-091>093-250000-
   South Central Minnesota

CITY           SKY/WX    TMP DP  RH WIND       PRES   REMARKS
MANKATO        CLOUDY    59  46  62 NE7       29.70S
NEW ULM        CLOUDY    57  45  62 E3        29.70R
ST JAMES       SUNNY     61  45  55 E3        29.70F
FAIRMONT       MOSUNNY   61  46  57 N7        29.69F
GLENCOE        CLOUDY    60  48  64 E5        29.70S
FARIBAULT      MOSUNNY   61  46  59 N6        29.70S
OWATONNA       CLOUDY    59  45  58 N6        29.69F
WASECA         CLOUDY    55  45  67 N7        29.71S
ALBERT LEA     CLOUDY    61  46  59 NE9       29.68F
$$
MNZ078>079-086>088-094>096-250000-
   Southeast Minnesota

CITY           SKY/WX    TMP DP  RH WIND       PRES   REMARKS
ROCHESTER      CLOUDY    58  47  66 NE10      29.70S
RED WING       CLOUDY    61  43  51 N5        29.68F
STANTON        CLOUDY    62  45  53 NE8       29.68F
DODGE CENTER   CLOUDY    57  45  62 NE7       29.69F
WINONA         CLOUDY    59  48  67 E3        29.69S
AUSTIN         CLOUDY    59  46  63 NE3       29.68S
PRESTON        CLOUDY    58  47  66 NE9       29.68S
$$
ABBREVIATIONS USED IN REMARKS
   TC - TEMPERATURES IN CELSIUS
  WCI - WIND CHILL INDEX
   HX - HEAT INDEX
  VSB - VISIBILITY
$$




USA.gov is the U.S. government's official web portal to all federal, state and local government web resources and services.